owner,sensor,date,latitude,longitude,vertical_datum,direction_of_sea_water_velocity,sea_water_speed,upward_sea_water_velocity,qcFlag 
TABS,ioos:station:wmo:42046:1,2014-05-01T00:00:00Z,27.8903,-94.0367,2.0,152.9812824,6.779970501,-99999.0,'11133222,11111222,99999999' 
TABS,ioos:station:wmo:42046:1,2014-05-01T00:30:00Z,27.8903,-94.0367,2.0,124.1326615,5.025733777,-99999.0,'11133222,11111222,99999999' 
TABS,ioos:station:wmo:42046:1,2014-05-01T01:00:00Z,27.8903,-94.0367,2.0,119.4468933,5.247980564,-99999.0,'11133222,11111222,99999999' 
TABS,ioos:station:wmo:42046:1,2014-05-01T01:30:00Z,27.8903,-94.0367,2.0,160.1702248,3.508005131,-99999.0,'11133222,11111222,99999999' 
TABS,ioos:station:wmo:42046:1,2014-05-01T02:00:00Z,27.8903,-94.0367,2.0,130.271918,8.492967679,-99999.0,'11133222,11111222,99999999' 
TABS,ioos:station:wmo:42046:1,2014-05-01T02:30:00Z,27.8903,-94.0367,2.0,98.95527221,6.873790803,-99999.0,'11133222,11111222,99999999' 
TABS,ioos:station:wmo:42046:1,2014-05-01T03:00:00Z,27.8903,-94.0367,2.0,92.95511667,6.789027913,-99999.0,'11133222,11111222,99999999' 
TABS,ioos:station:wmo:42046:1,2014-05-01T03:30:00Z,27.8903,-94.0367,2.0,98.8969724,8.664248381,-99999.0,'11133222,11111222,99999999' 
TABS,ioos:station:wmo:42046:1,2014-05-01T04:00:00Z,27.8903,-94.0367,2.0,84.59521287,7.643984563,-99999.0,'11133222,11111222,99999999' 
TABS,ioos:station:wmo:42046:1,2014-05-01T04:30:00Z,27.8903,-94.0367,2.0,90.82533036,8.330864301,-99999.0,'11133222,11111222,99999999' 
TABS,ioos:station:wmo:42046:1,2014-05-01T05:00:00Z,27.8903,-94.0367,2.0,95.80407273,7.317513239,-99999.0,'11133222,11111222,99999999' 
TABS,ioos:station:wmo:42046:1,2014-05-01T05:30:00Z,27.8903,-94.0367,2.0,107.3625915,7.941870057,-99999.0,'11133222,11111222,99999999' 
TABS,ioos:station:wmo:42046:1,2014-05-01T06:00:00Z,27.8903,-94.0367,2.0,108.1292413,5.334838329,-99999.0,'11133222,11111222,99999999' 
TABS,ioos:station:wmo:42046:1,2014-05-01T06:30:00Z,27.8903,-94.0367,2.0,94.06692894,8.742013498,-99999.0,'11133222,11111222,99999999' 
TABS,ioos:station:wmo:42046:1,2014-05-01T07:00:00Z,27.8903,-94.0367,2.0,95.1082024,16.8469107,-99999.0,'11111222,11111222,99999999' 
TABS,ioos:station:wmo:42046:1,2014-05-01T07:30:00Z,27.8903,-94.0367,2.0,97.86983716,11.83143271,-99999.0,'11111222,11111222,99999999' 
TABS,ioos:station:wmo:42046:1,2014-05-01T08:00:00Z,27.8903,-94.0367,2.0,111.7087596,13.78789687,-99999.0,'11111222,11111222,99999999' 
TABS,ioos:station:wmo:42046:1,2014-05-01T08:30:00Z,27.8903,-94.0367,2.0,120.1915524,15.27162074,-99999.0,'11111222,11111222,99999999' 
TABS,ioos:station:wmo:42046:1,2014-05-01T09:00:00Z,27.8903,-94.0367,2.0,128.3430634,13.84657719,-99999.0,'11111222,11111222,99999999' 
TABS,ioos:station:wmo:42046:1,2014-05-01T09:30:00Z,27.8903,-94.0367,2.0,149.8397992,18.82896705,-99999.0,'11111222,11111222,99999999' 
TABS,ioos:station:wmo:42046:1,2014-05-01T10:00:00Z,27.8903,-94.0367,2.0,150.1912097,22.28905561,-99999.0,'11111222,11111222,99999999' 
TABS,ioos:station:wmo:42046:1,2014-05-01T10:30:00Z,27.8903,-94.0367,2.0,162.2893502,24.25977123,-99999.0,'11111222,11111222,99999999' 
TABS,ioos:station:wmo:42046:1,2014-05-01T11:00:00Z,27.8903,-94.0367,2.0,160.2747349,21.62913775,-99999.0,'11111222,11111222,99999999' 
TABS,ioos:station:wmo:42046:1,2014-05-01T11:30:00Z,27.8903,-94.0367,2.0,172.6958515,24.22658251,-99999.0,'11111222,11111222,99999999' 
TABS,ioos:station:wmo:42046:1,2014-05-01T12:00:00Z,27.8903,-94.0367,2.0,169.0249419,30.51815361,-99999.0,'11111222,11111222,99999999' 
TABS,ioos:station:wmo:42046:1,2014-05-01T12:30:00Z,27.8903,-94.0367,2.0,178.268357,28.46299527,-99999.0,'11111222,11111222,99999999' 
TABS,ioos:station:wmo:42046:1,2014-05-01T13:00:00Z,27.8903,-94.0367,2.0,185.9470749,27.21648949,-99999.0,'11111222,11111222,99999999' 
TABS,ioos:station:wmo:42046:1,2014-05-01T13:30:00Z,27.8903,-94.0367,2.0,191.400979,25.85010058,-99999.0,'11111222,11111222,99999999' 
TABS,ioos:station:wmo:42046:1,2014-05-01T14:00:00Z,27.8903,-94.0367,2.0,202.4494354,33.15245391,-99999.0,'11111222,11111222,99999999' 
TABS,ioos:station:wmo:42046:1,2014-05-01T14:30:00Z,27.8903,-94.0367,2.0,217.6126374,29.14845107,-99999.0,'11111222,11111222,99999999' 
TABS,ioos:station:wmo:42046:1,2014-05-01T15:00:00Z,27.8903,-94.0367,2.0,223.6347552,28.79448732,-99999.0,'11111222,11111222,99999999' 
TABS,ioos:station:wmo:42046:1,2014-05-01T15:30:00Z,27.8903,-94.0367,2.0,227.8834969,34.012483,-99999.0,'11111222,11111222,99999999' 
TABS,ioos:station:wmo:42046:1,2014-05-01T16:00:00Z,27.8903,-94.0367,2.0,235.3715131,28.12152201,-99999.0,'11111222,11111222,99999999' 
TABS,ioos:station:wmo:42046:1,2014-05-01T16:30:00Z,27.8903,-94.0367,2.0,241.6973863,25.81608994,-99999.0,'11111222,11111222,99999999' 
TABS,ioos:station:wmo:42046:1,2014-05-01T17:00:00Z,27.8903,-94.0367,2.0,240.404364,24.70284194,-99999.0,'11111222,11111222,99999999' 
TABS,ioos:station:wmo:42046:1,2014-05-01T17:30:00Z,27.8903,-94.0367,2.0,249.8924547,30.7757437,-99999.0,'11111222,11111222,99999999' 
TABS,ioos:station:wmo:42046:1,2014-05-01T18:00:00Z,27.8903,-94.0367,2.0,254.7720652,29.16393663,-99999.0,'11111222,11111222,99999999' 
TABS,ioos:station:wmo:42046:1,2014-05-01T18:30:00Z,27.8903,-94.0367,2.0,261.3725348,27.06623727,-99999.0,'11111222,11111222,99999999' 
TABS,ioos:station:wmo:42046:1,2014-05-01T19:00:00Z,27.8903,-94.0367,2.0,268.5674862,25.60799875,-99999.0,'11111222,11111222,99999999' 
TABS,ioos:station:wmo:42046:1,2014-05-01T19:30:00Z,27.8903,-94.0367,2.0,283.0808138,26.02526849,-99999.0,'11111222,11111222,99999999' 
TABS,ioos:station:wmo:42046:1,2014-05-01T20:00:00Z,27.8903,-94.0367,2.0,286.04201,20.44614878,-99999.0,'11111222,11111222,99999999' 
TABS,ioos:station:wmo:42046:1,2014-05-01T20:30:00Z,27.8903,-94.0367,2.0,278.5695428,19.93251113,-99999.0,'11111222,11111222,99999999' 
TABS,ioos:station:wmo:42046:1,2014-05-01T21:00:00Z,27.8903,-94.0367,2.0,293.6044808,12.98653148,-99999.0,'11111222,11111222,99999999' 
TABS,ioos:station:wmo:42046:1,2014-05-01T21:30:00Z,27.8903,-94.0367,2.0,292.784347,13.42774739,-99999.0,'11111222,11111222,99999999' 
TABS,ioos:station:wmo:42046:1,2014-05-01T22:00:00Z,27.8903,-94.0367,2.0,301.9245525,11.97056807,-99999.0,'11111222,11111222,99999999' 
TABS,ioos:station:wmo:42046:1,2014-05-01T22:30:00Z,27.8903,-94.0367,2.0,308.5928904,7.983608207,-99999.0,'11133222,11111222,99999999' 
TABS,ioos:station:wmo:42046:1,2014-05-01T23:00:00Z,27.8903,-94.0367,2.0,313.6031379,4.35,-99999.0,'11133222,11111222,99999999' 
TABS,ioos:station:wmo:42046:1,2014-05-01T23:30:00Z,27.8903,-94.0367,2.0,280.1803143,3.281661165,-99999.0,'11133222,11111222,99999999' 
TABS,ioos:station:wmo:42046:1,2014-05-02T00:00:00Z,27.8903,-94.0367,2.0,167.9259868,1.912302277,-99999.0,'11133222,11111222,99999999' 
TABS,ioos:station:wmo:42046:1,2014-05-02T00:30:00Z,27.8903,-94.0367,2.0,280.6496157,2.38100819,-99999.0,'11133222,11111222,99999999' 
TABS,ioos:station:wmo:42046:1,2014-05-02T01:00:00Z,27.8903,-94.0367,2.0,276.4373265,1.962371015,-99999.0,'11133222,11111222,99999999' 
TABS,ioos:station:wmo:42046:1,2014-05-02T01:30:00Z,27.8903,-94.0367,2.0,252.1977487,1.144814395,-99999.0,'11133222,11111222,99999999' 
TABS,ioos:station:wmo:42046:1,2014-05-02T02:00:00Z,27.8903,-94.0367,2.0,111.9268232,2.544032233,-99999.0,'11133222,11111222,99999999' 
TABS,ioos:station:wmo:42046:1,2014-05-02T02:30:00Z,27.8903,-94.0367,2.0,202.3798723,0.735391052,-99999.0,'11133222,11111222,99999999' 
TABS,ioos:station:wmo:42046:1,2014-05-02T03:00:00Z,27.8903,-94.0367,2.0,89.63154434,6.220128616,-99999.0,'11133222,11111222,99999999' 
TABS,ioos:station:wmo:42046:1,2014-05-02T03:30:00Z,27.8903,-94.0367,2.0,134.4790396,4.667097599,-99999.0,'11133222,11111222,99999999' 
TABS,ioos:station:wmo:42046:1,2014-05-02T04:00:00Z,27.8903,-94.0367,2.0,64.90852897,4.173883084,-99999.0,'11133222,11111222,99999999' 
TABS,ioos:station:wmo:42046:1,2014-05-02T04:30:00Z,27.8903,-94.0367,2.0,113.0215619,3.400852834,-99999.0,'11133222,11111222,99999999' 
TABS,ioos:station:wmo:42046:1,2014-05-02T05:00:00Z,27.8903,-94.0367,2.0,102.9613715,3.878827142,-99999.0,'11133222,11111222,99999999' 
TABS,ioos:station:wmo:42046:1,2014-05-02T05:30:00Z,27.8903,-94.0367,2.0,138.0195725,6.174544518,-99999.0,'11133222,11111222,99999999' 
TABS,ioos:station:wmo:42046:1,2014-05-02T06:00:00Z,27.8903,-94.0367,2.0,126.8456156,4.736000422,-99999.0,'11133222,11111222,99999999' 
TABS,ioos:station:wmo:42046:1,2014-05-02T06:30:00Z,27.8903,-94.0367,2.0,117.3249213,7.755365884,-99999.0,'11133222,11111222,99999999' 
TABS,ioos:station:wmo:42046:1,2014-05-02T07:00:00Z,27.8903,-94.0367,2.0,133.6655387,8.805867362,-99999.0,'11133222,11111222,99999999' 
TABS,ioos:station:wmo:42046:1,2014-05-02T07:30:00Z,27.8903,-94.0367,2.0,136.7737185,7.08153232,-99999.0,'11133222,11111222,99999999' 
TABS,ioos:station:wmo:42046:1,2014-05-02T08:00:00Z,27.8903,-94.0367,2.0,141.0999405,7.452677371,-99999.0,'11133222,11111222,99999999' 
TABS,ioos:station:wmo:42046:1,2014-05-02T08:30:00Z,27.8903,-94.0367,2.0,142.3556256,11.54305419,-99999.0,'11111222,11111222,99999999' 
TABS,ioos:station:wmo:42046:1,2014-05-02T09:00:00Z,27.8903,-94.0367,2.0,149.2363713,15.21030243,-99999.0,'11111222,11111222,99999999' 
TABS,ioos:station:wmo:42046:1,2014-05-02T09:30:00Z,27.8903,-94.0367,2.0,146.7795163,14.5475015,-99999.0,'11111222,11111222,99999999' 
TABS,ioos:station:wmo:42046:1,2014-05-02T10:00:00Z,27.8903,-94.0367,2.0,143.616936,17.17862043,-99999.0,'11111222,11111222,99999999' 
TABS,ioos:station:wmo:42046:1,2014-05-02T10:30:00Z,27.8903,-94.0367,2.0,158.4266782,20.04411385,-99999.0,'11111222,11111222,99999999' 
TABS,ioos:station:wmo:42046:1,2014-05-02T11:00:00Z,27.8903,-94.0367,2.0,169.6072457,15.18918036,-99999.0,'11111222,11111222,99999999' 
TABS,ioos:station:wmo:42046:1,2014-05-02T11:30:00Z,27.8903,-94.0367,2.0,167.4301823,24.35370403,-99999.0,'11111222,11111222,99999999' 
TABS,ioos:station:wmo:42046:1,2014-05-02T12:00:00Z,27.8903,-94.0367,2.0,182.2699116,23.47842627,-99999.0,'11111222,11111222,99999999' 
TABS,ioos:station:wmo:42046:1,2014-05-02T12:30:00Z,27.8903,-94.0367,2.0,185.6997359,21.44603693,-99999.0,'11111222,11111222,99999999' 
TABS,ioos:station:wmo:42046:1,2014-05-02T13:00:00Z,27.8903,-94.0367,2.0,170.6407099,22.81368449,-99999.0,'11111222,11111222,99999999' 
TABS,ioos:station:wmo:42046:1,2014-05-02T13:30:00Z,27.8903,-94.0367,2.0,186.3326199,25.83766437,-99999.0,'11111222,11111222,99999999' 
TABS,ioos:station:wmo:42046:1,2014-05-02T14:00:00Z,27.8903,-94.0367,2.0,194.7795404,20.93258704,-99999.0,'11111222,11111222,99999999' 
TABS,ioos:station:wmo:42046:1,2014-05-02T14:30:00Z,27.8903,-94.0367,2.0,205.3480276,25.69374243,-99999.0,'11111222,11111222,99999999' 
TABS,ioos:station:wmo:42046:1,2014-05-02T15:00:00Z,27.8903,-94.0367,2.0,204.5595162,26.20040076,-99999.0,'11111222,11111222,99999999' 
TABS,ioos:station:wmo:42046:1,2014-05-02T15:30:00Z,27.8903,-94.0367,2.0,208.6614527,24.08068521,-99999.0,'11111222,11111222,99999999' 
TABS,ioos:station:wmo:42046:1,2014-05-02T16:00:00Z,27.8903,-94.0367,2.0,200.5247271,21.5905836,-99999.0,'11111222,11111222,99999999' 
TABS,ioos:station:wmo:42046:1,2014-05-02T16:30:00Z,27.8903,-94.0367,2.0,208.0280012,12.96000386,-99999.0,'11111222,11111222,99999999' 
TABS,ioos:station:wmo:42046:1,2014-05-02T17:00:00Z,27.8903,-94.0367,2.0,222.9167338,18.87100686,-99999.0,'11111222,11111222,99999999' 
TABS,ioos:station:wmo:42046:1,2014-05-02T17:30:00Z,27.8903,-94.0367,2.0,233.2817451,18.85006631,-99999.0,'11111222,11111222,99999999' 
TABS,ioos:station:wmo:42046:1,2014-05-02T18:00:00Z,27.8903,-94.0367,2.0,244.4896084,15.30177114,-99999.0,'11111222,11111222,99999999' 
TABS,ioos:station:wmo:42046:1,2014-05-02T18:30:00Z,27.8903,-94.0367,2.0,237.9869453,16.58154697,-99999.0,'11111222,11111222,99999999' 
TABS,ioos:station:wmo:42046:1,2014-05-02T19:00:00Z,27.8903,-94.0367,2.0,246.0329036,13.71225,-99999.0,'11111222,11111222,99999999' 
TABS,ioos:station:wmo:42046:1,2014-05-02T19:30:00Z,27.8903,-94.0367,2.0,238.266657,12.26325405,-99999.0,'11111222,11111222,99999999' 
TABS,ioos:station:wmo:42046:1,2014-05-02T20:00:00Z,27.8903,-94.0367,2.0,242.7614684,9.897519891,-99999.0,'11133222,11111222,99999999' 
TABS,ioos:station:wmo:42046:1,2014-05-02T20:30:00Z,27.8903,-94.0367,2.0,253.2800021,10.77554639,-99999.0,'11111222,11111222,99999999' 
TABS,ioos:station:wmo:42046:1,2014-05-02T21:00:00Z,27.8903,-94.0367,2.0,231.7069502,9.262855931,-99999.0,'11133222,11111222,99999999' 
TABS,ioos:station:wmo:42046:1,2014-05-02T21:30:00Z,27.8903,-94.0367,2.0,246.1799306,4.48175189,-99999.0,'11133222,11111222,99999999' 
TABS,ioos:station:wmo:42046:1,2014-05-02T22:00:00Z,27.8903,-94.0367,2.0,234.0593959,6.286827499,-99999.0,'11133222,11111222,99999999' 
TABS,ioos:station:wmo:42046:1,2014-05-02T22:30:00Z,27.8903,-94.0367,2.0,269.0447401,4.80066662,-99999.0,'11133222,11111222,99999999' 
TABS,ioos:station:wmo:42046:1,2014-05-02T23:00:00Z,27.8903,-94.0367,2.0,201.5551282,7.784420338,-99999.0,'11133222,11111222,99999999' 
TABS,ioos:station:wmo:42046:1,2014-05-02T23:30:00Z,27.8903,-94.0367,2.0,250.309392,3.175688902,-99999.0,'11133222,11111222,99999999' 
TABS,ioos:station:wmo:42046:1,2014-05-03T00:00:00Z,27.8903,-94.0367,2.0,242.0236525,4.540594675,-99999.0,'11133222,11111222,99999999' 
TABS,ioos:station:wmo:42046:1,2014-05-03T00:30:00Z,27.8903,-94.0367,2.0,222.7490487,3.241049213,-99999.0,'11133222,11111222,99999999' 
TABS,ioos:station:wmo:42046:1,2014-05-03T01:00:00Z,27.8903,-94.0367,2.0,220.2434977,4.519834068,-99999.0,'11133222,11111222,99999999' 
TABS,ioos:station:wmo:42046:1,2014-05-03T01:30:00Z,27.8903,-94.0367,2.0,225.5707183,2.128497122,-99999.0,'11133222,11111222,99999999' 
TABS,ioos:station:wmo:42046:1,2014-05-03T02:00:00Z,27.8903,-94.0367,2.0,262.8440543,2.328132299,-99999.0,'11133222,11111222,99999999' 
TABS,ioos:station:wmo:42046:1,2014-05-03T02:30:00Z,27.8903,-94.0367,2.0,186.7266579,3.927034505,-99999.0,'11133222,11111222,99999999' 
TABS,ioos:station:wmo:42046:1,2014-05-03T03:00:00Z,27.8903,-94.0367,2.0,346.5045087,0.514198405,-99999.0,'11133222,11111222,99999999' 
TABS,ioos:station:wmo:42046:1,2014-05-03T03:30:00Z,27.8903,-94.0367,2.0,206.7069511,1.802276338,-99999.0,'11133222,11111222,99999999' 
TABS,ioos:station:wmo:42046:1,2014-05-03T04:00:00Z,27.8903,-94.0367,2.0,197.5120047,2.160115738,-99999.0,'11133222,11111222,99999999' 
TABS,ioos:station:wmo:42046:1,2014-05-03T04:30:00Z,27.8903,-94.0367,2.0,128.6123954,7.563497868,-99999.0,'11133222,11111222,99999999' 
TABS,ioos:station:wmo:42046:1,2014-05-03T05:00:00Z,27.8903,-94.0367,2.0,109.7283878,8.265137627,-99999.0,'11133222,11111222,99999999' 
TABS,ioos:station:wmo:42046:1,2014-05-03T05:30:00Z,27.8903,-94.0367,2.0,138.3213628,3.173168763,-99999.0,'11133222,11111222,99999999' 
TABS,ioos:station:wmo:42046:1,2014-05-03T06:00:00Z,27.8903,-94.0367,2.0,165.5915345,6.349716529,-99999.0,'11133222,11111222,99999999' 
TABS,ioos:station:wmo:42046:1,2014-05-03T06:30:00Z,27.8903,-94.0367,2.0,143.7460366,7.440430095,-99999.0,'11133222,11111222,99999999' 
TABS,ioos:station:wmo:42046:1,2014-05-03T07:00:00Z,27.8903,-94.0367,2.0,158.5032776,6.631274387,-99999.0,'11133222,11111222,99999999' 
TABS,ioos:station:wmo:42046:1,2014-05-03T07:30:00Z,27.8903,-94.0367,2.0,163.2265781,3.707748643,-99999.0,'11133222,11111222,99999999' 
TABS,ioos:station:wmo:42046:1,2014-05-03T08:00:00Z,27.8903,-94.0367,2.0,143.8392415,7.270557063,-99999.0,'11133222,11111222,99999999' 
TABS,ioos:station:wmo:42046:1,2014-05-03T08:30:00Z,27.8903,-94.0367,2.0,153.2921856,7.186744743,-99999.0,'11133222,11111222,99999999' 
TABS,ioos:station:wmo:42046:1,2014-05-03T09:00:00Z,27.8903,-94.0367,2.0,128.2869927,7.682349901,-99999.0,'11133222,11111222,99999999' 
TABS,ioos:station:wmo:42046:1,2014-05-03T09:30:00Z,27.8903,-94.0367,2.0,143.8416887,7.406571407,-99999.0,'11133222,11111222,99999999' 
TABS,ioos:station:wmo:42046:1,2014-05-03T10:00:00Z,27.8903,-94.0367,2.0,123.8139604,7.690936224,-99999.0,'11133222,11111222,99999999' 
TABS,ioos:station:wmo:42046:1,2014-05-03T10:30:00Z,27.8903,-94.0367,2.0,131.1109032,7.193698631,-99999.0,'11133222,11111222,99999999' 
TABS,ioos:station:wmo:42046:1,2014-05-03T11:00:00Z,27.8903,-94.0367,2.0,155.1561387,14.59021933,-99999.0,'11111222,11111222,99999999' 
TABS,ioos:station:wmo:42046:1,2014-05-03T11:30:00Z,27.8903,-94.0367,2.0,144.7218134,18.21502951,-99999.0,'11111222,11111222,99999999' 
TABS,ioos:station:wmo:42046:1,2014-05-03T12:00:00Z,27.8903,-94.0367,2.0,148.8660095,21.95191563,-99999.0,'11111222,11111222,99999999' 
TABS,ioos:station:wmo:42046:1,2014-05-03T12:30:00Z,27.8903,-94.0367,2.0,153.6046368,21.12199091,-99999.0,'11111222,11111222,99999999' 
TABS,ioos:station:wmo:42046:1,2014-05-03T13:00:00Z,27.8903,-94.0367,2.0,153.6049971,21.07726975,-99999.0,'11111222,11111222,99999999' 
TABS,ioos:station:wmo:42046:1,2014-05-03T13:30:00Z,27.8903,-94.0367,2.0,157.9924844,20.14807435,-99999.0,'11111222,11111222,99999999' 
TABS,ioos:station:wmo:42046:1,2014-05-03T14:00:00Z,27.8903,-94.0367,2.0,173.7435084,24.13373158,-99999.0,'11111222,11111222,99999999' 
TABS,ioos:station:wmo:42046:1,2014-05-03T14:30:00Z,27.8903,-94.0367,2.0,176.2074856,21.0160177,-99999.0,'11111222,11111222,99999999' 
TABS,ioos:station:wmo:42046:1,2014-05-03T15:00:00Z,27.8903,-94.0367,2.0,178.8986024,21.3339401,-99999.0,'11111222,11111222,99999999' 
TABS,ioos:station:wmo:42046:1,2014-05-03T15:30:00Z,27.8903,-94.0367,2.0,174.9144286,17.59927555,-99999.0,'11111222,11111222,99999999' 
TABS,ioos:station:wmo:42046:1,2014-05-03T16:00:00Z,27.8903,-94.0367,2.0,174.9629268,21.0713692,-99999.0,'11111222,11111222,99999999' 
TABS,ioos:station:wmo:42046:1,2014-05-03T16:30:00Z,27.8903,-94.0367,2.0,186.7158243,16.16089725,-99999.0,'11111222,11111222,99999999' 
TABS,ioos:station:wmo:42046:1,2014-05-03T17:00:00Z,27.8903,-94.0367,2.0,196.1865384,14.67161205,-99999.0,'11111222,11111222,99999999' 
TABS,ioos:station:wmo:42046:1,2014-05-03T17:30:00Z,27.8903,-94.0367,2.0,188.2546998,16.22813914,-99999.0,'11111222,11111222,99999999' 
TABS,ioos:station:wmo:42046:1,2014-05-03T18:00:00Z,27.8903,-94.0367,2.0,186.8738967,11.61348354,-99999.0,'11111222,11111222,99999999' 
TABS,ioos:station:wmo:42046:1,2014-05-03T18:30:00Z,27.8903,-94.0367,2.0,191.8154948,11.33007061,-99999.0,'11111222,11111222,99999999' 
TABS,ioos:station:wmo:42046:1,2014-05-03T19:00:00Z,27.8903,-94.0367,2.0,187.9016046,8.874260533,-99999.0,'11133222,11111222,99999999' 
TABS,ioos:station:wmo:42046:1,2014-05-03T19:30:00Z,27.8903,-94.0367,2.0,193.811092,9.88582824,-99999.0,'11133222,11111222,99999999' 
TABS,ioos:station:wmo:42046:1,2014-05-03T20:00:00Z,27.8903,-94.0367,2.0,204.2158559,11.23897682,-99999.0,'11111222,11111222,99999999' 
TABS,ioos:station:wmo:42046:1,2014-05-03T20:30:00Z,27.8903,-94.0367,2.0,188.5595256,10.74973953,-99999.0,'11111222,11111222,99999999' 
TABS,ioos:station:wmo:42046:1,2014-05-03T21:00:00Z,27.8903,-94.0367,2.0,177.7496447,10.18785552,-99999.0,'11111222,11111222,99999999' 
TABS,ioos:station:wmo:42046:1,2014-05-03T21:30:00Z,27.8903,-94.0367,2.0,194.6954163,5.479242648,-99999.0,'11133222,11111222,99999999' 
TABS,ioos:station:wmo:42046:1,2014-05-03T22:00:00Z,27.8903,-94.0367,2.0,198.1949659,7.557909764,-99999.0,'11133222,11111222,99999999' 
TABS,ioos:station:wmo:42046:1,2014-05-03T22:30:00Z,27.8903,-94.0367,2.0,162.7837562,9.662944686,-99999.0,'11133222,11111222,99999999' 
TABS,ioos:station:wmo:42046:1,2014-05-03T23:00:00Z,27.8903,-94.0367,2.0,176.502738,9.016789894,-99999.0,'11133222,11111222,99999999' 
TABS,ioos:station:wmo:42046:1,2014-05-03T23:30:00Z,27.8903,-94.0367,2.0,180.104439,10.95001826,-99999.0,'11111222,11111222,99999999' 
TABS,ioos:station:wmo:42046:1,2014-05-04T00:00:00Z,27.8903,-94.0367,2.0,182.9794564,10.00352438,-99999.0,'11111222,11111222,99999999' 
TABS,ioos:station:wmo:42046:1,2014-05-04T00:30:00Z,27.8903,-94.0367,2.0,183.530797,5.520480052,-99999.0,'11133222,11111222,99999999' 
TABS,ioos:station:wmo:42046:1,2014-05-04T01:00:00Z,27.8903,-94.0367,2.0,200.5423402,4.987123419,-99999.0,'11133222,11111222,99999999' 
TABS,ioos:station:wmo:42046:1,2014-05-04T01:30:00Z,27.8903,-94.0367,2.0,178.6744198,3.891040992,-99999.0,'11133222,11111222,99999999' 
TABS,ioos:station:wmo:42046:1,2014-05-04T02:00:00Z,27.8903,-94.0367,2.0,168.7180663,3.98704151,-99999.0,'11133222,11111222,99999999' 
TABS,ioos:station:wmo:42046:1,2014-05-04T02:30:00Z,27.8903,-94.0367,2.0,167.6289743,5.507885257,-99999.0,'11133222,11111222,99999999' 
TABS,ioos:station:wmo:42046:1,2014-05-04T03:00:00Z,27.8903,-94.0367,2.0,183.3374361,5.839905821,-99999.0,'11133222,11111222,99999999' 
TABS,ioos:station:wmo:42046:1,2014-05-04T03:30:00Z,27.8903,-94.0367,2.0,136.4298856,4.816897342,-99999.0,'11133222,11111222,99999999' 
TABS,ioos:station:wmo:42046:1,2014-05-04T04:00:00Z,27.8903,-94.0367,2.0,152.4083366,3.994258379,-99999.0,'11133222,11111222,99999999' 
TABS,ioos:station:wmo:42046:1,2014-05-04T04:30:00Z,27.8903,-94.0367,2.0,200.8089103,4.503787295,-99999.0,'11133222,11111222,99999999' 
TABS,ioos:station:wmo:42046:1,2014-05-04T05:00:00Z,27.8903,-94.0367,2.0,141.1371364,3.968400181,-99999.0,'11133222,11111222,99999999' 
TABS,ioos:station:wmo:42046:1,2014-05-04T05:30:00Z,27.8903,-94.0367,2.0,143.4170583,7.5840952,-99999.0,'11133222,11111222,99999999' 
TABS,ioos:station:wmo:42046:1,2014-05-04T06:00:00Z,27.8903,-94.0367,2.0,135.4813595,3.365947118,-99999.0,'11133222,11111222,99999999' 
TABS,ioos:station:wmo:42046:1,2014-05-04T06:30:00Z,27.8903,-94.0367,2.0,97.40297296,4.34622825,-99999.0,'11133222,11111222,99999999' 
TABS,ioos:station:wmo:42046:1,2014-05-04T07:00:00Z,27.8903,-94.0367,2.0,125.9179464,3.852531635,-99999.0,'11133222,11111222,99999999' 
TABS,ioos:station:wmo:42046:1,2014-05-04T07:30:00Z,27.8903,-94.0367,2.0,103.7836849,4.952625566,-99999.0,'11133222,11111222,99999999' 
TABS,ioos:station:wmo:42046:1,2014-05-04T08:00:00Z,27.8903,-94.0367,2.0,84.49341744,6.148373769,-99999.0,'11133222,11111222,99999999' 
TABS,ioos:station:wmo:42046:1,2014-05-04T08:30:00Z,27.8903,-94.0367,2.0,85.36782764,4.705369274,-99999.0,'11133222,11111222,99999999' 
TABS,ioos:station:wmo:42046:1,2014-05-04T09:00:00Z,27.8903,-94.0367,2.0,112.4150343,6.241578326,-99999.0,'11133222,11111222,99999999' 
TABS,ioos:station:wmo:42046:1,2014-05-04T09:30:00Z,27.8903,-94.0367,2.0,90.87894374,7.170843744,-99999.0,'11133222,11111222,99999999' 
TABS,ioos:station:wmo:42046:1,2014-05-04T10:00:00Z,27.8903,-94.0367,2.0,91.2887735,8.892249434,-99999.0,'11133222,11111222,99999999' 
TABS,ioos:station:wmo:42046:1,2014-05-04T10:30:00Z,27.8903,-94.0367,2.0,93.46822115,12.8936147,-99999.0,'11111222,11111222,99999999' 
TABS,ioos:station:wmo:42046:1,2014-05-04T11:00:00Z,27.8903,-94.0367,2.0,111.3970205,10.52547386,-99999.0,'11111222,11111222,99999999' 
TABS,ioos:station:wmo:42046:1,2014-05-04T11:30:00Z,27.8903,-94.0367,2.0,104.5078615,12.37458686,-99999.0,'11111222,11111222,99999999' 
TABS,ioos:station:wmo:42046:1,2014-05-04T12:00:00Z,27.8903,-94.0367,2.0,110.5439905,16.755611,-99999.0,'11111222,11111222,99999999' 
TABS,ioos:station:wmo:42046:1,2014-05-04T12:30:00Z,27.8903,-94.0367,2.0,116.895114,13.97118463,-99999.0,'11111222,11111222,99999999' 
TABS,ioos:station:wmo:42046:1,2014-05-04T13:00:00Z,27.8903,-94.0367,2.0,117.2031003,16.86547064,-99999.0,'11111222,11111222,99999999' 
TABS,ioos:station:wmo:42046:1,2014-05-04T13:30:00Z,27.8903,-94.0367,2.0,127.2483958,16.0423502,-99999.0,'11111222,11111222,99999999' 
TABS,ioos:station:wmo:42046:1,2014-05-04T14:00:00Z,27.8903,-94.0367,2.0,134.5138352,13.33651379,-99999.0,'11111222,11111222,99999999' 
TABS,ioos:station:wmo:42046:1,2014-05-04T14:30:00Z,27.8903,-94.0367,2.0,145.2094684,15.59827234,-99999.0,'11111222,11111222,99999999' 
TABS,ioos:station:wmo:42046:1,2014-05-04T15:00:00Z,27.8903,-94.0367,2.0,142.1972374,18.06039313,-99999.0,'11111222,11111222,99999999' 
TABS,ioos:station:wmo:42046:1,2014-05-04T15:30:00Z,27.8903,-94.0367,2.0,137.5023526,16.35683649,-99999.0,'11111222,11111222,99999999' 
TABS,ioos:station:wmo:42046:1,2014-05-04T16:00:00Z,27.8903,-94.0367,2.0,146.4137101,15.29310956,-99999.0,'11111222,11111222,99999999' 